Regional Weather Roundup
Issued by NWS

Home | Current Version | Previous Version | Text Only | Print | Product List | Glossary Off
Versions: 1 2 3 4 5 6 7 8 9 10 11 12 13 14 15 16 17 18 19 20 21 22 23 24 25 26 27 28 29 30 31 32 33 34 35 36 37 38 39 40 41 42 43 44 45 46 47 48 49 50

779
ASUS43 KOAX 250510
RWRNE

WEATHER ROUNDUP FOR NEBRASKA
NATIONAL WEATHER SERVICE OMAHA NE
1100 PM CST FRI NOV 24 2017

NOTES: SATELLITE DATA IS BEING USED TO AUGMENT CLOUD COVER ABOVE
       12000 FEET.
       "FAIR" INDICATES FEW OR NO CLOUDS BELOW 12,000 FEET WITH NO
       SIGNIFICANT WEATHER AND/OR OBSTRUCTIONS TO VISIBILITY.


NEZ001>004-019>022-054>056-250600-
NEBRASKA PANHANDLE

CITY           SKY/WX    TMP DP  RH WIND       PRES   REMARKS
SCOTTSBLUFF    CLEAR     32  21  64 CALM      30.07R
ALLIANCE       MOCLDY    28  24  85 W5        30.05R WCI  23
CHADRON        CLEAR     29  25  85 SW5       30.04R WCI  24
GORDON         FAIR      29  24  81 CALM      30.03S
KIMBALL        CLEAR     30  25  82 W7        30.08R WCI  23
SIDNEY         CLEAR     29  23  78 NW9       30.08R WCI  20
$$

NEZ057>060-069>072-079>082-250600-
SOUTHWEST NEBRASKA

CITY           SKY/WX    TMP DP  RH WIND       PRES   REMARKS
NORTH PLATTE   CLEAR     31  24  75 CALM      30.07R
IMPERIAL       MOCLDY    35  28  75 NW6       30.07R WCI  30
LEXINGTON      CLEAR     33  28  79 NW7       30.06R WCI  27
MCCOOK         CLEAR     38  29  70 N12       30.05R WCI  30
OGALLALA       CLEAR     29  25  82 W5        30.08R WCI  24
$$

NEZ005>010-023>029-035>040-094-250600-
NORTH CENTRAL NEBRASKA

CITY           SKY/WX    TMP DP  RH WIND       PRES   REMARKS
VALENTINE      CLEAR     38  29  70 NW8       30.01R WCI  32
AINSWORTH      CLEAR     36  30  80 NW5       30.02R WCI  32
BROKEN BOW     CLEAR     39  27  62 CALM      30.04R
O`NEILL        PTCLDY    40  32  74 W8        29.99R WCI  34
ORD            CLEAR     33  27  78 NW5       30.02R WCI  29
THEDFORD       CLEAR     34  27  76 W5        30.07R WCI  29
$$

NEZ041-046>049-061>064-073>077-083>087-250600-
SOUTH CENTRAL NEBRASKA

CITY           SKY/WX    TMP DP  RH WIND       PRES   REMARKS
GRAND ISLAND   CLEAR     38  31  76 W8        30.03R WCI  32
AURORA         CLEAR     36  30  78 W8        30.02R WCI  30
HASTINGS       CLEAR     35  27  72 NW9       30.03R WCI  28
HEBRON         PTCLDY    42  32  68 NW6       30.01R
HOLDREGE       CLEAR     37  29  72 NW5       30.04R WCI  34
KEARNEY        CLEAR     42  29  59 NW10      30.05R
YORK           PTCLDY    36  32  87 W9        30.01R WCI  29
$$

NEZ011>018-030>034-042>045-250600-
NORTHEAST NEBRASKA

CITY           SKY/WX    TMP DP  RH WIND       PRES   REMARKS
NORFOLK        CLEAR     39  33  79 W7        29.97R WCI  34
ALBION         CLEAR     36  32  86 NW5       30.01R WCI  32
BLAIR          CLEAR     45  34  66 NW5       29.94R
COLUMBUS       CLEAR     37  31  78 W6        30.00R WCI  32
FREMONT        CLEAR     38  32  79 W3        29.96R
TEKAMAH        CLEAR     35  27  72 W9        29.94R WCI  28
WAYNE          CLEAR     37  32  83 NW7       29.95R WCI  31
$$

NEZ050>053-065>068-078-088>093-250600-
SOUTHEAST NEBRASKA

CITY           SKY/WX    TMP DP  RH WIND       PRES   REMARKS
LINCOLN        PTCLDY    42  33  70 W6        30.00R
OMAHA EPPLEY   CLEAR     39  32  76 NW3       29.94R
BEATRICE       CLOUDY    37  32  81 W5        29.99R WCI  34
FALLS CITY     CLEAR     47  36  65 NW8       29.95R
NEBRASKA CITY  CLEAR     46  36  67 NW10      29.96R
PLATTSMOUTH    CLEAR     43  35  72 W7        29.96R
$$

NEZ044-045-051>053-067-250600-
OMAHA AREA

CITY           SKY/WX    TMP DP  RH WIND       PRES   REMARKS
OMAHA EPPLEY   CLEAR     39  32  76 NW3       29.94R
BLAIR          CLEAR     45  34  66 NW5       29.94R
FREMONT        CLEAR     38  32  79 W3        29.96R
MILLARD        CLEAR     47  35  62 NW7       29.96R
OFFUTT AFB     CLEAR     45  33  64 W6        29.95R
PLATTSMOUTH    CLEAR     43  35  72 W7        29.96R
WAHOO          FAIR      41  33  73 W6        29.97R
$$




USA.gov is the U.S. government's official web portal to all federal, state and local government web resources and services.